Kalamazoo, MI

7:43 PM EST on December 04, 2016 (GMT -0500)
Kalamazoo-Battle Creek International

Weather History for KAZO - February, 2013

Change the Weather History Date:

Tuesday, February 26, 2013

  Actual Average Record
Temperature  
Mean Temperature 33 °F 30 °F  
Max Temperature 37 °F 37 °F 63 °F (1976)
Min Temperature 29 °F 22 °F -9 °F (1963)
Degree Days  
Heating Degree Days 32 35  
Month to date heating degree days 1037 996  
Since 1 July heating degree days 4488 4704  
Cooling Degree Days 0 0  
Month to date cooling degree days 0 0  
Year to date cooling degree days 0 0  
Moisture  
Dew Point 27 °F    
Average Humidity 78    
Maximum Humidity 96    
Minimum Humidity 59    
Precipitation  
Precipitation 0.37 in 0.06 in 0.80 in (2009)
Month to date precipitation 1.13 1.33  
Year to date precipitation 4.53 3.12  
Sea Level Pressure  
Sea Level Pressure 29.69 in    
Wind  
Wind Speed 10 mph (ENE)    
Max Wind Speed 21 mph    
Max Gust Speed 32 mph    
Visibility 5 miles    
Events Fog , Rain , Snow    
T = Trace of Precipitation, MM = Missing Value Source: NWS Daily Summary

Daily Weather History Graph

Daily Weather History Graph

Search for Another Location

Airport or City:

Trip Planner

Search our weather history database for the weather conditions in past years. The results will help you decide how hot, cold, wet, or windy it might be!

Date:

Astronomy

Feb. 26, 2013 Rise Set
Actual Time 7:21 AM EST 6:28 PM EST
Civil Twilight 6:53 AM EST 6:57 PM EST
Nautical Twilight 6:21 AM EST 7:29 PM EST
Astronomical Twilight 5:48 AM EST 8:02 PM EST
Moon 7:47 PM EST (2/26) 7:22 AM EST (2/26)
Length of Visible Light 12h 03m
Length of Day
11h 07m
Full, 99% of the Moon is Illuminated
Feb 26
Full
Mar 4
Last Quarter
Mar 11
New
Mar 19
First Quarter
Mar 27
Full

Hourly Weather History & Observations

Time (EST) Temp. Windchill Dew Point Humidity Pressure Visibility Wind Dir Wind Speed Gust Speed Precip Events Conditions
12:53 AM 30.0 °F 24.1 °F 21.9 °F 72% 30.07 in 8.0 mi East 5.8 mph - N/A   Clear
1:53 AM 30.0 °F 23.2 °F 19.9 °F 66% 30.06 in 10.0 mi East 6.9 mph - N/A   Clear
2:53 AM 30.0 °F 21.1 °F 19.9 °F 66% 30.03 in 10.0 mi East 10.4 mph - N/A   Clear
3:53 AM 30.0 °F 21.7 °F 19.9 °F 66% 30.00 in 10.0 mi ENE 9.2 mph - N/A   Clear
4:53 AM 30.0 °F 21.7 °F 19.9 °F 66% 29.94 in 10.0 mi ENE 9.2 mph - N/A   Clear
5:53 AM 30.9 °F 23.5 °F 21.0 °F 67% 29.94 in 10.0 mi ENE 8.1 mph - N/A   Clear
6:53 AM 30.0 °F 22.4 °F 21.0 °F 69% 29.91 in 10.0 mi NE 8.1 mph - N/A   Clear
7:53 AM 30.9 °F 21.7 °F 21.0 °F 67% 29.91 in 10.0 mi East 11.5 mph 17.3 mph N/A   Clear
8:53 AM 32.0 °F 23.0 °F 21.9 °F 66% 29.87 in 10.0 mi ENE 11.5 mph 20.7 mph N/A   Scattered Clouds
9:53 AM 34.0 °F 25.0 °F 21.9 °F 61% 29.82 in 10.0 mi East 12.7 mph 21.9 mph N/A   Clear
10:53 AM 35.1 °F 25.2 °F 23.0 °F 61% 29.76 in 10.0 mi East 16.1 mph 26.5 mph N/A   Clear
11:53 AM 37.0 °F 28.1 °F 23.0 °F 57% 29.73 in 9.0 mi East 15.0 mph 28.8 mph 0.00 in Rain Light Rain
12:53 PM 34.0 °F 25.0 °F 27.0 °F 75% 29.67 in 4.0 mi ENE 12.7 mph 23.0 mph 0.03 in Rain Light Rain
1:53 PM 34.0 °F 24.2 °F 28.0 °F 79% 29.63 in 3.0 mi ENE 15.0 mph 23.0 mph 0.04 in Rain Rain
2:13 PM 33.8 °F 24.3 °F 28.4 °F 81% 29.59 in 2.0 mi ENE 13.8 mph 24.2 mph 0.04 in Rain Light Freezing Rain
2:16 PM 33.8 °F 24.3 °F 28.4 °F 81% 29.59 in 2.0 mi East 13.8 mph 24.2 mph 0.04 in Rain Light Freezing Rain
2:53 PM 33.1 °F 24.4 °F 30.0 °F 89% 29.61 in 2.5 mi East 11.5 mph 21.9 mph 0.10 in Rain Light Freezing Rain
3:03 PM 33.8 °F 24.3 °F 30.2 °F 87% 29.58 in 2.0 mi ENE 13.8 mph 23.0 mph 0.01 in Rain Light Freezing Rain
3:20 PM 33.8 °F 25.3 °F 30.2 °F 87% 29.57 in 2.0 mi ENE 11.5 mph 21.9 mph 0.01 in Snow Light Snow
3:22 PM 33.8 °F 25.3 °F 30.2 °F 87% 29.56 in 2.0 mi ENE 11.5 mph 21.9 mph 0.02 in Rain , Snow Light Freezing Rain
3:44 PM 33.8 °F 24.3 °F 30.2 °F 87% 29.56 in 2.5 mi ENE 13.8 mph 20.7 mph 0.02 in Snow Light Snow
3:53 PM 33.1 °F 24.9 °F 30.0 °F 89% 29.59 in 1.2 mi East 10.4 mph 24.2 mph 0.03 in Snow Light Snow
4:10 PM 33.8 °F 25.8 °F 30.2 °F 87% 29.56 in 2.0 mi ENE 10.4 mph 20.7 mph 0.00 in Snow Light Snow
4:17 PM 33.8 °F 25.3 °F 30.2 °F 87% 29.56 in 1.2 mi ENE 11.5 mph 20.7 mph 0.00 in Snow Light Snow
4:53 PM 33.1 °F 23.9 °F 30.9 °F 92% 29.57 in 1.2 mi ENE 12.7 mph 20.7 mph 0.02 in Snow Light Snow
5:00 PM 33.8 °F 25.8 °F 30.2 °F 87% 29.55 in 0.5 mi ENE 10.4 mph 19.6 mph 0.01 in Fog , Snow Snow
5:53 PM 33.1 °F 26.9 °F 30.9 °F 92% 29.57 in 0.5 mi Variable 6.9 mph 16.1 mph 0.05 in Fog , Snow Snow
6:53 PM 33.1 °F 24.9 °F 30.9 °F 92% 29.57 in 0.5 mi ENE 10.4 mph 19.6 mph 0.05 in Fog , Snow Snow
7:53 PM 33.1 °F 25.5 °F 32.0 °F 96% 29.56 in 1.2 mi NE 9.2 mph - 0.02 in Snow Light Snow
8:53 PM 33.1 °F 25.5 °F 32.0 °F 96% 29.54 in 2.0 mi NE 9.2 mph 16.1 mph 0.01 in Snow Light Snow
9:53 PM 33.1 °F 26.9 °F 32.0 °F 96% 29.53 in 1.8 mi NE 6.9 mph - 0.01 in Snow Light Snow
10:49 PM 33.8 °F 27.7 °F 32.0 °F 93% 29.49 in 3.0 mi NE 6.9 mph - 0.01 in Snow Light Snow
10:53 PM 33.1 °F 26.1 °F 32.0 °F 96% 29.51 in 3.0 mi NE 8.1 mph - 0.01 in Snow Light Snow
11:53 PM 34.0 °F 28.0 °F 32.0 °F 92% 29.49 in 8.0 mi NE 6.9 mph - 0.00 in   Overcast